DMSP 5D-2 F11 DEB, 28329

Orbit data source: Space-Track

DMSP 5D-2 F11 DEB, 28329 is space debris in SSO originally from a launch on Thu, 28 Nov 1991 UTC launched from the Air Force Western Test Range (AFWTR). Debris objects in space refer to the collection of defunct objects orbiting the Earth. Examples of debris include non-operational satellites, rocket bodies, and fragments generated from explosions, collisions, or faulty payload assembly.

Loading next visibility...
Identifier
28329, 1991-082AS
Orbit
SSO
Country
Flag of USUS
Related business
Manufacturer
Unknown
Mission
Spacecraft
Bus & Motor
Unknown
Mass
Unknown
Launch date (UTC)
1991-11-28 (34 years ago)
Launch vehicle
Unknown
Launch site
Air Force Western Test Range (AFWTR)
Object type
Payload
Rocket body
Debris
Shape & HBR
Unknown shape, 0.1 m
Radar Cross Section
Small (<0.1 m²)

Expand to show TLE details & history
Last TLE update: 1 day ago

TLE from 1 day ago
0 DMSP 5D-2 F11 DEB
1 28329U 91082AS  25349.15183180  .00003457  00000-0  12232-2 0  9995
2 28329  98.9145  64.0677 0068413  35.0861 325.4801 14.33955690111525
Epoch: 2025-12-15T03:38Z
TLE epoch observation values (Epoch: 2025-12-15T03:38:38.267Z)
Latitude
0.00001°
Longitude
-74.64625°
Altitude
741.226 km
Speed
7.505 km/s
True Right ascension
04h 16m 16s
True Declination
0° 00' 00"
Sunlit
Object was in full shadow at epoch
Visualization orbit readout
Latitude
Unknown
Longitude
Unknown
Altitude
Unknown
Speed
Unknown
Apparent Right ascension
Unknown
Apparent Declination
Unknown
Sunlit
N/A
Visualization observer readout
Local Sidereal Time
12:46:37
Azimuth
Unknown
Elevation
Unknown
Doppler factor
Unknown
Orbital elements
Apogee altitude
824.63 km
Perigee altitude
726.747 km
Semi-major axis
7,153.826 km
Eccentricity
0.00684
Inclination
98.9145°
RAAN
64.0677°
Arg. of periapsis
35.0861°
True anomaly
325.03269°
Mean anomaly
325.4801°
Eccentric anomaly
325.25671°
Mean motion
3.58704 °/min
Orbital period
100.36 mins
BSTAR
0.0012232

Documentation

Showing up to 5 results
|